[[{"header":{"parameterUnit":"m.s-1","parameterCategory":1,"la1":30.2991,"la2":30.254,"lo1":-89.0895,"lo2":-89.0444,"dy":0.0017,"dx":0.0017,"nx":28,"ny":28,"refTime":"2023-10-05T09:00:00:Z","depth":0,"parameterNumber":2,"parameterNumberName":"U-component_of_WINDS"},"data":[0,0,0,0,0,0,0,0,0,0,0,0,0,0,0,0,0,0,0,0,0,0,0,0,0,0,0,0,0,0,0,0,0,0,0,0,0,0,0,0,0,0,0,0,0,0,0,0,0,0,0,0,0,0,0,0,0,0,-4.3649,-4.3653,0,-4.402,-4.4024,-4.4028,-4.4113,-4.411,-4.4108,-4.4105,-4.4485,-4.4497,-4.451,0,0,0,0,0,0,0,0,0,0,0,0,0,-4.3016,-4.3027,-4.3648,-4.3653,-4.3658,-4.4019,-4.4024,-4.4029,-4.4113,-4.411,-4.4107,-4.4104,-4.4481,-4.4496,-4.4511,0,0,0,0,0,0,0,0,0,0,0,0,0,-4.3329,-4.3031,-4.3648,-4.3743,-4.3755,-4.4018,-4.4024,-4.4031,-4.4114,-4.411,-4.4106,-4.4102,-4.4476,-4.4494,-4.4513,-4.4707,0,0,-4.457,-4.4579,0,0,0,0,0,0,0,0,-4.3311,-4.3352,-4.3724,-4.3737,-4.3751,-4.4016,-4.3941,-4.4257,-4.4115,-4.3978,-4.4105,-4.4101,-4.4332,-4.4363,-4.4441,-4.4725,-4.4741,-4.4572,-4.4584,-4.4592,-4.4597,0,0,0,0,0,0,0,-4.3289,-4.3337,-4.3795,-4.373,-4.3746,-4.3769,-4.3809,-4.4001,-4.4172,-4.3989,-4.3996,-4.4039,-4.4339,-4.4422,-4.445,-4.4747,-4.4572,-4.4588,-4.46,-4.4607,-4.5211,-4.5215,0,0,0,0,0,0,-4.3251,-4.3318,-4.3784,-4.3806,-4.3517,-4.3783,-4.3828,-4.3935,-4.417,-4.4203,-4.4042,-4.4042,-4.4392,-4.4428,-4.4464,-4.4707,-4.4591,-4.4609,-4.462,-4.5206,-4.5212,-4.5217,0,0,0,0,0,0,-4.3237,-4.3291,-4.3769,-4.3565,-4.3627,-4.3798,-4.3917,-4.3944,-4.4028,-4.421,-4.4241,-4.4096,-4.4391,-4.4438,-4.4646,-4.4721,-4.4618,-4.4635,-4.52,-4.5208,-4.5214,-4.5193,0,0,0,0,0,0,-4.3218,-4.3286,-4.336,-4.3566,-4.3637,-4.3943,-4.3922,-4.3954,-4.406,-4.4063,-4.4269,-4.4299,-4.4391,-4.4618,-4.4665,-4.4745,-4.4649,-4.5194,-4.5204,-4.5212,-4.5188,-4.5198,-4.5208,0,0,0,0,0,-4.3195,-4.3339,-4.3363,-4.3419,-4.3734,-4.3947,-4.3989,-4.4091,-4.4066,-4.4142,-4.426,-4.4293,-4.4706,-4.4638,-4.4692,-4.4779,-4.519,-4.5201,-4.5211,-4.5183,-4.5196,-4.5207,0,0,0,0,0,0,-4.3137,-4.3367,-4.3397,-4.3611,-4.3759,-4.3961,-4.406,-4.4102,-4.426,-4.4256,-4.4378,-4.4424,-4.4625,-4.4724,-4.4644,-4.4981,-4.4948,-4.4969,-4.4907,-4.4922,-4.4931,-4.4902,-4.4665,0,0,0,0,0,-4.3149,-4.3303,-4.3496,-4.3667,-4.374,-4.3887,-4.3984,-4.4051,-4.4209,-4.4272,-4.4405,-4.4558,-4.4723,-4.4828,-4.499,-4.5204,-4.525,-4.5291,-4.5301,-4.5308,-4.5324,-4.5446,-4.5466,-4.5252,-4.5252,-4.5252,0,0,-4.3175,-4.332,-4.3409,-4.3659,-4.3781,-4.3938,-4.3939,-4.4105,-4.4223,-4.4298,-4.4502,-4.4606,-4.4785,-4.4997,-4.5098,-4.5086,-4.5395,-4.5322,-4.5326,-4.5339,-4.5459,-4.5479,-4.5497,-4.5259,-4.5258,-4.5257,0,0,-4.3302,-4.3428,-4.3584,-4.3707,-4.3893,-4.3992,-4.4029,-4.4227,-4.4299,-4.4507,-4.4566,-4.471,-4.4991,-4.5116,-4.5216,-4.5396,-4.5432,-4.5446,-4.5497,-4.5614,-4.5631,-4.5646,-4.5709,-4.5731,-4.5463,-4.5463,-4.5463,0,-4.3311,-4.3549,-4.3658,-4.3823,-4.3931,-4.4008,-4.4167,-4.4282,-4.4511,-4.4585,-4.4569,-4.4925,-4.5051,-4.5294,-4.5338,-4.5418,-4.5464,-4.5421,-4.5619,-4.5636,-4.5652,-4.5714,-4.5737,-4.5463,-4.5463,-4.5463,-4.5463,0,-4.355,-4.3715,-4.3819,-4.4039,-4.416,-4.4321,-4.4456,-4.4565,-4.4623,-4.4724,-4.4936,-4.5091,-4.5285,-4.5349,-4.5407,-4.5602,-4.5589,-4.5595,-4.5564,-4.5671,-4.5731,-4.5756,-4.5463,-4.5463,-4.5463,-4.5463,0,0,-4.3646,-4.3927,-4.3963,-4.4065,-4.4278,-4.4408,-4.4574,-4.4765,-4.4857,-4.5014,-4.5156,-4.5395,-4.5403,-4.5517,-4.5591,-4.5694,-4.5826,-4.5688,-4.5694,-4.5707,-4.605,-4.6042,-4.6067,-4.5853,-4.5859,-4.5863,-4.6035,0,-4.3797,-4.4094,-4.42,-4.4445,-4.4599,-4.4677,-4.4822,-4.4969,-4.5069,-4.5216,-4.5327,-4.5493,-4.5491,-4.5561,-4.5667,-4.5787,-4.5896,-4.5777,-4.5986,-4.5992,-4.5935,-4.6099,-4.609,-4.6245,-4.6059,-4.6063,-4.6066,0,-4.4012,-4.4173,-4.4433,-4.4629,-4.4698,-4.4826,-4.5011,-4.5151,-4.532,-4.5386,-4.5515,-4.5583,-4.5761,-4.5722,-4.597,-4.5886,-4.5979,-4.6052,-4.606,-4.6081,-4.6032,-4.6121,-4.6297,-4.6319,-4.6105,-4.6101,-4.6099,0,-4.4053,-4.4335,-4.4528,-4.4613,-4.4847,-4.4935,-4.5037,-4.5204,-4.5313,-4.5476,-4.5548,-4.5729,-4.5828,-4.5967,-4.6083,-4.6044,-4.632,-4.629,-4.6379,-4.6376,-4.6429,-4.6424,-4.6619,-4.6494,-4.6494,-4.6493,-4.6493,0,-4.4209,-4.4365,-4.4549,-4.4667,-4.4845,-4.4967,-4.514,-4.5247,-4.5396,-4.5537,-4.5617,-4.5748,-4.5894,-4.6045,-4.6137,-4.6327,-4.6372,-4.643,-4.6452,-4.6421,-4.6413,-4.6481,-4.6472,-4.65,-4.6498,-4.6497,-4.6496,0,-4.4283,-4.4413,-4.4627,-4.4833,-4.4889,-4.5011,-4.5187,-4.5306,-4.5411,-4.5589,-4.5638,-4.5803,-4.5985,-4.6115,-4.6349,-4.6412,-4.6616,-4.6639,-4.6558,-4.6568,-4.6648,-4.6638,-4.6891,-4.693,-4.6781,-4.6782,-4.6783,0,-4.4371,-4.4493,-4.4713,-4.4813,-4.4915,-4.5076,-4.5188,-4.5315,-4.5429,-4.5634,-4.5728,-4.5916,-4.6072,-4.636,-4.6501,-4.6681,-4.6707,-4.6784,-4.6734,-4.67,-4.6706,-4.6696,-4.6709,-4.6789,-4.679,-4.6791,-4.6792,0,-4.4515,-4.4575,-4.4733,-4.4915,-4.5047,-4.5197,-4.5347,-4.5426,-4.558,-4.5704,-4.5891,-4.6012,-4.6253,-4.6438,-4.6633,-4.674,-4.6792,-4.6807,-4.6837,-4.6805,-4.6752,-4.678,-4.6574,-4.68,-4.6799,-4.6798,-4.6798,-4.6798,-4.4599,-4.4711,-4.4883,-4.5058,-4.5185,-4.5325,-4.5447,-4.5569,-4.5727,-4.5932,-4.5999,-4.6192,-4.6363,-4.663,-4.674,-4.6895,-4.6891,-4.6934,-4.6944,-4.6952,-4.695,-4.673,-4.6931,-4.6931,-4.6931,-4.6931,-4.6931,0,-4.4745,-4.4861,-4.5021,-4.5229,-4.5367,-4.5407,-4.5577,-4.5689,-4.5859,-4.6014,-4.6167,-4.6383,-4.6565,-4.6722,-4.691,-4.7004,-4.7032,-4.7049,-4.7041,-4.7065,-4.6943,-4.6898,-4.7022,-4.7022,-4.7022,-4.7022,-4.7022,-4.7022,-4.4837,-4.5029,-4.5109,-4.5367,-4.5483,-4.5673,-4.5766,-4.5897,-4.6021,-4.6259,-4.641,-4.6512,-4.6669,-4.687,-4.7039,-4.7081,-4.7146,-4.7156,-4.7203,-4.7085,-4.7074,-4.7063,-4.7021,-4.7169,-4.717,-4.7312,-4.7313,-4.7314]},{"header":{"parameterUnit":"m.s-1","parameterCategory":1,"la1":30.2991,"la2":30.254,"lo1":-89.0895,"lo2":-89.0444,"dy":0.0017,"dx":0.0017,"nx":28,"ny":28,"refTime":"2023-10-05T09:00:00:Z","depth":0,"parameterNumber":3,"parameterNumberName":"V-component_of_WINDS"},"data":[0,0,0,0,0,0,0,0,0,0,0,0,0,0,0,0,0,0,0,0,0,0,0,0,0,0,0,0,0,0,0,0,0,0,0,0,0,0,0,0,0,0,0,0,0,0,0,0,0,0,0,0,0,0,0,0,0,0,2.8724,2.8725,0,2.8819,2.882,2.8821,2.889,2.8891,2.8891,2.8892,2.8981,2.8982,2.8984,0,0,0,0,0,0,0,0,0,0,0,0,0,2.8594,2.8596,2.8724,2.8725,2.8727,2.8819,2.882,2.8822,2.889,2.8891,2.8892,2.8892,2.898,2.8982,2.8984,0,0,0,0,0,0,0,0,0,0,0,0,0,2.8666,2.8597,2.8724,2.8772,2.8778,2.8819,2.882,2.8822,2.889,2.8891,2.8892,2.8893,2.8979,2.8982,2.8984,2.8983,0,0,2.8993,2.8994,0,0,0,0,0,0,0,0,2.8662,2.8671,2.8764,2.8769,2.8775,2.8844,2.8807,2.8875,2.889,2.8847,2.8892,2.8893,2.8934,2.894,2.8956,2.8987,2.8991,2.8993,2.8995,2.8996,2.8996,0,0,0,0,0,0,0,2.8657,2.8667,2.8762,2.8765,2.8772,2.8786,2.8798,2.882,2.8884,2.8851,2.8856,2.8867,2.8937,2.8953,2.8958,2.8992,2.8993,2.8995,2.8997,2.8998,2.9026,2.9025,0,0,0,0,0,0,2.8645,2.8662,2.8759,2.8764,2.872,2.8788,2.8801,2.8821,2.8884,2.8894,2.8866,2.887,2.8948,2.8955,2.8962,2.8964,2.8996,2.8998,2.9,2.9027,2.9026,2.9025,0,0,0,0,0,0,2.8642,2.8653,2.8755,2.8715,2.8729,2.8789,2.8811,2.8822,2.8839,2.8895,2.8906,2.8871,2.8949,2.8958,2.8978,2.8968,2.8999,2.9002,2.9028,2.9027,2.9025,2.8968,0,0,0,0,0,0,2.8638,2.8652,2.8654,2.8715,2.8731,2.8771,2.8811,2.8823,2.8844,2.885,2.8903,2.8913,2.895,2.8973,2.898,2.8972,2.9004,2.9029,2.9027,2.9026,2.8971,2.8965,2.896,0,0,0,0,0,2.8634,2.8632,2.8654,2.8665,2.8735,2.8771,2.878,2.8825,2.8843,2.8844,2.8881,2.8911,2.8968,2.8975,2.8983,2.8976,2.903,2.9028,2.9026,2.8974,2.8966,2.896,0,0,0,0,0,0,2.8565,2.8641,2.8665,2.8684,2.8721,2.8782,2.8785,2.8816,2.8846,2.885,2.8902,2.8914,2.8928,2.8954,2.896,2.8977,2.9003,2.9002,2.896,2.8953,2.8948,2.8941,2.9006,0,0,0,0,0,2.8553,2.8578,2.8642,2.8652,2.867,2.8724,2.8741,2.8774,2.8812,2.8827,2.8865,2.8899,2.8925,2.8941,2.8967,2.8975,2.8987,2.8974,2.8968,2.8964,2.8962,2.8968,2.8963,2.9019,2.9019,2.9019,0,0,2.8526,2.8571,2.8583,2.8639,2.8672,2.8694,2.8736,2.8758,2.8775,2.883,2.8852,2.888,2.8922,2.8936,2.8943,2.8958,2.895,2.8961,2.8957,2.8958,2.8965,2.896,2.8955,2.9017,2.9017,2.9018,0,0,2.849,2.8527,2.854,2.8572,2.8621,2.8658,2.8661,2.8718,2.874,2.8764,2.8805,2.8824,2.8867,2.8895,2.8915,2.889,2.8919,2.8897,2.8867,2.8872,2.8867,2.8863,2.8854,2.885,2.8895,2.8895,2.8895,0,2.845,2.849,2.8542,2.8562,2.8585,2.8639,2.865,2.8678,2.8732,2.8745,2.8761,2.8817,2.8848,2.8869,2.8863,2.8878,2.8881,2.8891,2.8864,2.8861,2.8858,2.885,2.8846,2.8892,2.8893,2.8893,2.8893,0,2.8438,2.8464,2.8468,2.8522,2.8546,2.8561,2.8613,2.863,2.866,2.8694,2.8716,2.8756,2.8792,2.8799,2.8828,2.8824,2.8831,2.8855,2.8881,2.8849,2.8842,2.8839,2.8888,2.8889,2.889,2.8891,0,0,2.8361,2.8445,2.8446,2.8471,2.853,2.8549,2.8567,2.8605,2.8618,2.8653,2.8668,2.8703,2.8726,2.8748,2.878,2.8784,2.8761,2.8807,2.8809,2.8797,2.8759,2.8741,2.8736,2.8781,2.8781,2.878,2.8755,0,2.8333,2.8371,2.8419,2.8439,2.8463,2.8514,2.8529,2.8565,2.8597,2.862,2.8654,2.8679,2.8707,2.8721,2.8727,2.8763,2.8754,2.8765,2.8793,2.8793,2.8781,2.8733,2.8713,2.8688,2.8753,2.8752,2.8752,0,2.8306,2.8343,2.8366,2.8424,2.8435,2.8448,2.8487,2.8509,2.855,2.8573,2.8598,2.8633,2.8652,2.8676,2.8701,2.8708,2.8722,2.8741,2.8741,2.8745,2.877,2.8734,2.8681,2.8677,2.8748,2.8748,2.8749,0,2.8247,2.8301,2.8323,2.8343,2.841,2.8418,2.8446,2.8488,2.8508,2.8541,2.8554,2.8587,2.8605,2.8628,2.867,2.8684,2.8691,2.8718,2.8708,2.8707,2.8707,2.8706,2.8654,2.8716,2.8716,2.8716,2.8717,0,2.8212,2.8224,2.8298,2.831,2.8325,2.8379,2.8391,2.8422,2.846,2.8478,2.8523,2.8538,2.8594,2.8615,2.8647,2.8663,2.867,2.8688,2.8696,2.8684,2.8681,2.8693,2.8696,2.8716,2.8716,2.8716,2.8716,0,2.8148,2.8198,2.8225,2.8287,2.8303,2.8311,2.8363,2.8376,2.8411,2.8434,2.8442,2.8496,2.8523,2.8568,2.8607,2.8629,2.8638,2.8652,2.8625,2.863,2.8618,2.8618,2.8571,2.8567,2.8631,2.8631,2.863,0,2.8122,2.8133,2.8198,2.8215,2.8242,2.8268,2.829,2.8342,2.8361,2.841,2.8416,2.8448,2.8476,2.8517,2.8558,2.8588,2.8603,2.8584,2.8607,2.8595,2.8602,2.8601,2.8602,2.8579,2.8578,2.8577,2.8576,0,2.807,2.8095,2.8125,2.8165,2.819,2.8222,2.8257,2.8267,2.8326,2.8346,2.8376,2.8398,2.844,2.847,2.8506,2.8532,2.8563,2.8569,2.8568,2.8555,2.8539,2.8547,2.861,2.857,2.857,2.8571,2.8571,2.8571,2.8024,2.8037,2.8085,2.8117,2.8149,2.8181,2.8196,2.8235,2.8262,2.8302,2.833,2.8358,2.8398,2.8451,2.8474,2.8495,2.8509,2.8508,2.8508,2.8507,2.8502,2.8536,2.8502,2.8502,2.8502,2.8503,2.8503,0,2.7974,2.8008,2.8038,2.8086,2.8111,2.8142,2.8182,2.82,2.8225,2.8261,2.8289,2.8323,2.8352,2.8396,2.8428,2.8437,2.8452,2.8443,2.8443,2.8448,2.8488,2.8485,2.843,2.843,2.843,2.843,2.843,2.843,2.7952,2.7975,2.8005,2.8043,2.8076,2.8106,2.8126,2.8155,2.8184,2.8221,2.8247,2.8277,2.8315,2.8351,2.8378,2.839,2.84,2.8386,2.8402,2.8438,2.8445,2.8451,2.8449,2.8388,2.8388,2.8361,2.8361,2.8361]}]]